QZS-4 (QZSS/PRN 195)

Last updated on Wed Nov 05 2025 00:03:27 GMT+0000 (Coordinated Universal Time)

1 42965U 17062A 25307.98271294 -.00000302 00000+0 00000+0 0 9995 2 42965 40.2478 346.3701 0752187 270.5524 279.1019 1.00263534 29545
UTC large
Height (km)
Speed (km/s)
/
Latitude / Longitude
Inclination (degrees)
Orbital Period (minutes)
Azimuth
Elevation
Range (km)
Doppler Factor

Next 0 passes for location: London (51.5072 / 0.1276)

Sorry there are no passes over London.